Rbgn^[z[y[W
メイン
   新天体発見情報
     Comet P/2018 Y2 (Africano)
投稿するにはまず登録を

スレッド表示 | 新しいものから 前のトピック | 次のトピック | 下へ
投稿者 スレッド
佐藤裕久
投稿日時: 2019-1-27 13:28
モデレータ
登録日: 2005-6-12
居住地: 日本
投稿: 2505
オンライン
Comet P/2018 Y2 (Africano)

B. M. Africanoの通報によると、12月31.3日UT、アリゾナのMt Lemmon 1.5-m反射望遠鏡で得た
CCD露出から彗星を発見した。30秒4枚による画像ではコンパクトな約8"-10" の核と核からp.a. 
275°に5"-10"伸びた尾らしいものが見える。 
小惑星センターのPCCP webpageに公表後、佐藤英貴氏(東京都文京区, iTelescope 天文台, 0.43-m 
f/6.8 アストログラフ, Mayhill近郊, ニューメキシコ州, 遠隔操作;1月1.4日UT、60秒露出5枚の
スタック, 10" の強く集光したコマとp.a. 28°の向かって10"の尾の気配がある。7".6の円形範囲
で測定した光度は19.0等であった)らCCD観測者によって彗星状と観測された。

発見位置は次のとおり、

     2018 UT             R.A. (2000) Decl.       Mag.   Observer
     Dec. 31.29428    6 44 42.68   +27 49 06.0   19.2   Africano
          31.29941    6 44 42.48   +27 49 05.3   19.1     "
          31.30453    6 44 42.27   +27 49 04.9   19.1     "
          31.30967    6 44 42.08   +27 49 04.4   19.2     "
          31.33052    6 44 41.25   +27 49 02.3   19.1     "
          31.34204    6 44 40.79   +27 49 01.1   19.1     "
          31.35090    6 44 40.42   +27 49 00.1   19.1     "
          31.35966    6 44 40.07   +27 48 58.9   19.1     "
          31.47780    6 44 35.40   +27 48 46.3   18.7     "
          31.48682    6 44 35.14   +27 48 45.3   18.7     "

楕円軌道要素と位置推算表は次のとおり、

Orbital elements:
    P/2018 Y2 (Africano)
Epoch 2018 Dec. 28.0 TT = JDT 2458480.5
T 2018 Dec. 20.13276 TT                                 MPCW
q   3.8737559            (2000.0)            P               Q
n   0.04779072     Peri.  160.20995     -0.13920598     -0.97418333
a   7.5203894      Node   297.43991     +0.87944596     -0.03912025
e   0.4848996      Incl.   11.55229     +0.45518841     -0.22234310
P  20.62
From 43 observations 2018 Dec. 10-2019 Jan. 2, mean residual 0".4.

    P/2018 Y2 (Africano)
Epoch 2039 July 31.0 TT = JDT 2466000.5
T 2039 July 15.29180 TT                                 MPCW
q   3.8724654            (2000.0)            P               Q
n   0.04779547     Peri.  160.08114     -0.13606227     -0.97461089
a   7.5198916      Node   297.38464     +0.87965228     -0.03627978
e   0.4850371      Incl.   11.55239     +0.45573998     -0.22094656
P  20.62
From 43 observations 2018 Dec. 10-2019 Jan. 2, mean residual 0".4.

    P/2018 Y2 (Africano)
Epoch 2019 Apr. 27.0 TT = JDT 2458600.5
T 2018 Dec. 20.04936 TT                                 MPCW
q   3.8737038            (2000.0)            P               Q
n   0.04781661     Peri.  160.19814     -0.13899244     -0.97421094
a   7.5176747      Node   297.43911     +0.87945311     -0.03891911
e   0.4847205      Incl.   11.55325     +0.45523987     -0.22225739
P  20.61
From 43 observations 2018 Dec. 10-2019 Jan. 2, mean residual 0".4.

Ephemeris:
    P/2018 Y2 (Africano)
Date    TT    R. A. (2000) Decl.     Delta      r     Elong.  Phase   m1
2018 12 03    07 00 22.3 +28 24 02   3.0128  3.8752   146.8     8.0  19.8
...
2018 12 18    06 52 58.0 +28 08 50   2.9213  3.8738   163.2     4.2  19.7
...
2018 12 26    06 48 05.5 +27 57 47   2.8983  3.8739   171.6     2.1  19.7
...
2019 01 01    06 44 15.5 +27 47 52   2.8936  3.8744   175.3     1.2  19.7
2019 01 02    06 43 36.9 +27 46 04   2.8939  3.8745   175.1     1.2  19.7
2019 01 03    06 42 58.4 +27 44 14   2.8945  3.8747   174.7     1.3  19.7
...
2019 01 09    06 39 11.0 +27 32 22   2.9044  3.8756   169.6     2.6  19.7
...
2019 01 17    06 34 28.6 +27 14 30   2.9343  3.8775   161.0     4.7  19.7
...
2019 02 01    06 27 39.3 +26 36 16   3.0381  3.8825   144.5     8.5  19.8

(CBET 4590、MPEC 2019-A20)

スレッド表示 | 新しいものから 前のトピック | 次のトピック | トップ

投稿するにはまず登録を
 
© 1999 Tsutomu Seki.